contact:dominique.lefevre@mio.osupytheas.fr, maurice.libes@osupytheas.fr, didier.mallarino@osupytheas.fr
Project:EMSO http://www.emso-fr.org/EMSO-France
Depth: 2436.0 m
Title:EMSO Ligure Ouest : Data MII capteur CSTAR
DateTime,Latitude,Longitude,Instrument_Serial,Reference_Counts,Signal_Counts,Corrected_Signal_raw_counts,Calculated_Beam_c_inverse_meters,Internal_thermistor_counts
DateTime,Latitude,Longitude,Instrument_Serial,Reference_Counts,Signal_Counts,Corrected_Signal_raw_counts,Calculated_Beam_c_inverse_meters,Internal_thermistor_counts
2022-03-22T00:01:50,42.805,6.029,CST-1368DR,4836,5781,12755,0.809,551
2022-03-22T00:04:51,42.805,6.029,CST-1368DR,4836,5781,12757,0.809,551
2022-03-22T00:07:53,42.805,6.029,CST-1368DR,4836,5778,12749,0.811,551
2022-03-22T00:10:54,42.805,6.029,CST-1368DR,4836,5775,12744,0.813,551
2022-03-22T00:13:56,42.805,6.029,CST-1368DR,4836,5777,12746,0.812,551
2022-03-22T00:16:57,42.805,6.029,CST-1368DR,4836,5772,12735,0.816,551
2022-03-22T00:19:59,42.805,6.029,CST-1368DR,4836,5772,12736,0.815,551
2022-03-22T00:23:01,42.805,6.029,CST-1368DR,4836,5775,12743,0.813,551
2022-03-22T00:26:02,42.805,6.029,CST-1368DR,4836,5763,12716,0.822,551
2022-03-22T00:29:04,42.805,6.029,CST-1368DR,4836,5778,12749,0.811,551
2022-03-22T00:32:05,42.805,6.029,CST-1368DR,4836,5772,12737,0.815,551
2022-03-22T00:35:07,42.805,6.029,CST-1368DR,4836,5772,12736,0.815,551
2022-03-22T00:38:08,42.805,6.029,CST-1368DR,4836,5773,12738,0.815,551
2022-03-22T00:41:10,42.805,6.029,CST-1368DR,4836,5774,12740,0.814,551
2022-03-22T00:44:12,42.805,6.029,CST-1368DR,4836,5772,12735,0.816,551
2022-03-22T00:47:13,42.805,6.029,CST-1368DR,4836,5770,12732,0.817,551
2022-03-22T00:50:15,42.805,6.029,CST-1368DR,4836,5776,12745,0.813,551
2022-03-22T00:53:16,42.805,6.029,CST-1368DR,4836,5770,12733,0.816,551
2022-03-22T00:56:18,42.805,6.029,CST-1368DR,4836,5773,12739,0.815,551
2022-03-22T00:59:20,42.805,6.029,CST-1368DR,4836,5770,12731,0.817,551
2022-03-22T01:02:21,42.805,6.029,CST-1368DR,4836,5773,12739,0.815,551
2022-03-22T01:05:23,42.805,6.029,CST-1368DR,4836,5776,12745,0.813,551
2022-03-22T01:08:24,42.805,6.029,CST-1368DR,4836,5777,12747,0.812,551
2022-03-22T01:11:26,42.805,6.029,CST-1368DR,4836,5772,12737,0.815,551
2022-03-22T01:14:27,42.805,6.029,CST-1368DR,4836,5772,12737,0.815,551
2022-03-22T01:17:29,42.805,6.029,CST-1368DR,4836,5774,12740,0.814,551
2022-03-22T01:20:31,42.805,6.029,CST-1368DR,4836,5773,12739,0.815,551
2022-03-22T01:23:32,42.805,6.029,CST-1368DR,4836,5775,12743,0.813,551
2022-03-22T01:26:34,42.805,6.029,CST-1368DR,4836,5769,12730,0.817,551
2022-03-22T01:29:35,42.805,6.029,CST-1368DR,4836,5773,12738,0.815,551
2022-03-22T01:32:37,42.805,6.029,CST-1368DR,4836,5776,12746,0.812,551
2022-03-22T01:35:39,42.805,6.029,CST-1368DR,4836,5778,12749,0.811,551
2022-03-22T01:38:40,42.805,6.029,CST-1368DR,4836,5771,12735,0.816,551
2022-03-22T01:41:42,42.805,6.029,CST-1368DR,4836,5774,12740,0.814,551
2022-03-22T01:44:43,42.805,6.029,CST-1368DR,4836,5772,12736,0.815,551
2022-03-22T01:47:45,42.805,6.029,CST-1368DR,4836,5773,12738,0.815,551
2022-03-22T01:50:46,42.805,6.029,CST-1368DR,4836,5774,12740,0.814,551
2022-03-22T01:53:48,42.805,6.029,CST-1368DR,4836,5774,12741,0.814,551
2022-03-22T01:56:50,42.805,6.029,CST-1368DR,4836,5771,12735,0.816,551
2022-03-22T01:59:51,42.805,6.029,CST-1368DR,4836,5776,12746,0.812,551
2022-03-22T02:02:53,42.805,6.029,CST-1368DR,4836,5776,12745,0.813,551
2022-03-22T02:05:54,42.805,6.029,CST-1368DR,4836,5773,12739,0.815,551
2022-03-22T02:08:56,42.805,6.029,CST-1368DR,4836,5771,12734,0.816,551
2022-03-22T02:11:57,42.805,6.029,CST-1368DR,4836,5773,12738,0.815,551
2022-03-22T02:14:59,42.805,6.029,CST-1368DR,4836,5773,12738,0.815,551
2022-03-22T02:18:01,42.805,6.029,CST-1368DR,4836,5770,12732,0.817,551
2022-03-22T02:21:02,42.805,6.029,CST-1368DR,4836,5773,12738,0.815,550
2022-03-22T02:24:04,42.805,6.029,CST-1368DR,4836,5776,12745,0.813,551
2022-03-22T02:27:05,42.805,6.029,CST-1368DR,4836,5772,12736,0.815,551
2022-03-22T02:30:07,42.805,6.029,CST-1368DR,4836,5772,12736,0.815,550
2022-03-22T02:33:09,42.805,6.029,CST-1368DR,4836,5780,12755,0.809,551
2022-03-22T02:36:10,42.805,6.029,CST-1368DR,4836,5774,12740,0.814,551
2022-03-22T02:39:12,42.805,6.029,CST-1368DR,4836,5772,12737,0.815,551
2022-03-22T02:42:13,42.805,6.029,CST-1368DR,4836,5775,12743,0.813,551
2022-03-22T02:45:15,42.805,6.029,CST-1368DR,4836,5778,12750,0.811,551
2022-03-22T02:48:16,42.805,6.029,CST-1368DR,4836,5777,12747,0.812,551
2022-03-22T02:51:18,42.805,6.029,CST-1368DR,4836,5773,12739,0.815,551
2022-03-22T02:54:20,42.805,6.029,CST-1368DR,4836,5775,12743,0.813,551
2022-03-22T02:57:21,42.805,6.029,CST-1368DR,4836,5773,12738,0.815,551
2022-03-22T03:00:23,42.805,6.029,CST-1368DR,4836,5773,12739,0.815,551
2022-03-22T03:03:24,42.805,6.029,CST-1368DR,4836,5777,12748,0.812,551
2022-03-22T03:06:26,42.805,6.029,CST-1368DR,4836,5778,12749,0.811,551
2022-03-22T03:09:27,42.805,6.029,CST-1368DR,4836,5777,12748,0.812,551
2022-03-22T03:12:29,42.805,6.029,CST-1368DR,4836,5777,12747,0.812,551
2022-03-22T03:15:31,42.805,6.029,CST-1368DR,4836,5787,12770,0.805,551
2022-03-22T03:18:32,42.805,6.029,CST-1368DR,4836,5788,12772,0.804,551
2022-03-22T03:21:34,42.805,6.029,CST-1368DR,4836,5786,12768,0.805,551
2022-03-22T03:24:35,42.805,6.029,CST-1368DR,4836,5786,12767,0.806,551
2022-03-22T03:27:37,42.805,6.029,CST-1368DR,4836,5781,12755,0.809,551
2022-03-22T03:30:39,42.805,6.029,CST-1368DR,4836,5784,12762,0.807,551
2022-03-22T03:33:40,42.805,6.029,CST-1368DR,4836,5786,12768,0.805,551
2022-03-22T03:36:42,42.805,6.029,CST-1368DR,4836,5778,12750,0.811,551
2022-03-22T03:39:43,42.805,6.029,CST-1368DR,4836,5781,12755,0.809,551
2022-03-22T03:42:45,42.805,6.029,CST-1368DR,4836,5778,12750,0.811,551
2022-03-22T03:45:46,42.805,6.029,CST-1368DR,4836,5769,12729,0.818,551
2022-03-22T03:48:48,42.805,6.029,CST-1368DR,4836,5777,12746,0.812,551
2022-03-22T03:51:50,42.805,6.029,CST-1368DR,4836,5767,12725,0.819,551
2022-03-22T03:54:51,42.805,6.029,CST-1368DR,4836,5781,12755,0.809,551
2022-03-22T03:57:53,42.805,6.029,CST-1368DR,4836,5774,12741,0.814,551
2022-03-22T04:00:54,42.805,6.029,CST-1368DR,4836,5775,12743,0.813,551
2022-03-22T04:03:56,42.805,6.029,CST-1368DR,4836,5773,12738,0.815,551
2022-03-22T04:06:57,42.805,6.029,CST-1368DR,4836,5769,12729,0.818,551
2022-03-22T04:09:59,42.805,6.029,CST-1368DR,4836,5765,12721,0.820,551
2022-03-22T04:13:01,42.805,6.029,CST-1368DR,4836,5776,12746,0.812,551
2022-03-22T04:16:02,42.805,6.029,CST-1368DR,4836,5771,12734,0.816,551
2022-03-22T04:19:04,42.805,6.029,CST-1368DR,4836,5760,12709,0.824,551
2022-03-22T04:22:05,42.805,6.029,CST-1368DR,4836,5767,12725,0.819,551
2022-03-22T04:25:07,42.805,6.029,CST-1368DR,4836,5769,12730,0.817,551
2022-03-22T04:28:09,42.805,6.029,CST-1368DR,4836,5769,12729,0.818,551
2022-03-22T04:31:10,42.805,6.029,CST-1368DR,4835,5762,12716,0.822,551
2022-03-22T04:34:12,42.805,6.029,CST-1368DR,4835,5762,12716,0.822,551
2022-03-22T04:37:13,42.805,6.029,CST-1368DR,4836,5768,12727,0.818,551
2022-03-22T04:40:15,42.805,6.029,CST-1368DR,4836,5770,12733,0.816,551
2022-03-22T04:43:16,42.805,6.029,CST-1368DR,4835,5766,12725,0.819,551
2022-03-22T04:46:18,42.805,6.029,CST-1368DR,4835,5764,12721,0.820,551
2022-03-22T04:49:20,42.805,6.029,CST-1368DR,4836,5762,12714,0.822,551
2022-03-22T04:52:21,42.805,6.029,CST-1368DR,4836,5768,12727,0.818,551
2022-03-22T04:55:23,42.805,6.029,CST-1368DR,4836,5762,12714,0.822,551
2022-03-22T04:58:24,42.805,6.029,CST-1368DR,4836,5766,12723,0.820,551
2022-03-22T05:01:26,42.805,6.029,CST-1368DR,4836,5766,12722,0.820,551
2022-03-22T05:04:27,42.805,6.029,CST-1368DR,4836,5773,12739,0.815,551
2022-03-22T05:07:29,42.805,6.029,CST-1368DR,4835,5766,12726,0.819,551
2022-03-22T05:10:31,42.805,6.029,CST-1368DR,4836,5765,12722,0.820,551
2022-03-22T05:13:32,42.805,6.029,CST-1368DR,4836,5770,12732,0.817,551
2022-03-22T05:16:34,42.805,6.029,CST-1368DR,4835,5763,12718,0.821,551
2022-03-22T05:19:35,42.805,6.029,CST-1368DR,4836,5767,12725,0.819,551
2022-03-22T05:22:37,42.805,6.029,CST-1368DR,4836,5765,12721,0.820,551
2022-03-22T05:25:39,42.805,6.029,CST-1368DR,4836,5771,12734,0.816,551
2022-03-22T05:28:40,42.805,6.029,CST-1368DR,4836,5769,12729,0.818,551
2022-03-22T05:31:42,42.805,6.029,CST-1368DR,4835,5764,12720,0.820,551
2022-03-22T05:34:43,42.805,6.029,CST-1368DR,4836,5770,12732,0.817,551
2022-03-22T05:37:45,42.805,6.029,CST-1368DR,4835,5770,12734,0.816,550
2022-03-22T05:40:46,42.805,6.029,CST-1368DR,4835,5770,12735,0.816,551
2022-03-22T05:43:48,42.805,6.029,CST-1368DR,4835,5769,12733,0.816,551
2022-03-22T05:46:50,42.805,6.029,CST-1368DR,4835,5765,12723,0.820,551
2022-03-22T05:49:51,42.805,6.029,CST-1368DR,4836,5773,12739,0.815,551
2022-03-22T05:52:53,42.805,6.029,CST-1368DR,4835,5770,12734,0.816,551
2022-03-22T05:55:54,42.805,6.029,CST-1368DR,4835,5772,12738,0.815,551
2022-03-22T05:58:56,42.805,6.029,CST-1368DR,4836,5771,12734,0.816,551
2022-03-22T06:01:57,42.805,6.029,CST-1368DR,4835,5774,12743,0.813,551
2022-03-22T06:04:59,42.805,6.029,CST-1368DR,4835,5775,12746,0.812,551
2022-03-22T06:08:01,42.805,6.029,CST-1368DR,4835,5776,12747,0.812,551
2022-03-22T06:11:02,42.805,6.029,CST-1368DR,4835,5772,12738,0.815,551
2022-03-22T06:14:04,42.805,6.029,CST-1368DR,4835,5776,12748,0.812,551
2022-03-22T06:17:05,42.805,6.029,CST-1368DR,4836,5780,12754,0.810,551
2022-03-22T06:20:07,42.805,6.029,CST-1368DR,4836,5778,12750,0.811,551
2022-03-22T06:23:09,42.805,6.029,CST-1368DR,4835,5779,12754,0.810,551
2022-03-22T06:26:10,42.805,6.029,CST-1368DR,4836,5781,12757,0.809,551
2022-03-22T06:29:12,42.805,6.029,CST-1368DR,4835,5782,12760,0.808,551
2022-03-22T06:32:13,42.805,6.029,CST-1368DR,4835,5778,12752,0.810,551
2022-03-22T06:35:15,42.805,6.029,CST-1368DR,4835,5779,12753,0.810,551
2022-03-22T06:38:16,42.805,6.029,CST-1368DR,4835,5782,12762,0.807,551
2022-03-22T06:41:18,42.805,6.029,CST-1368DR,4835,5785,12767,0.806,551
2022-03-22T06:44:20,42.805,6.029,CST-1368DR,4835,5779,12754,0.810,551
2022-03-22T06:47:21,42.805,6.029,CST-1368DR,4835,5780,12756,0.809,551
2022-03-22T06:50:23,42.805,6.029,CST-1368DR,4835,5782,12761,0.808,551
2022-03-22T06:53:24,42.805,6.029,CST-1368DR,4835,5785,12767,0.806,551
2022-03-22T06:56:26,42.805,6.029,CST-1368DR,4835,5778,12751,0.811,551
2022-03-22T06:59:27,42.805,6.029,CST-1368DR,4835,5778,12752,0.810,551
2022-03-22T07:02:29,42.805,6.029,CST-1368DR,4835,5785,12767,0.806,551
2022-03-22T07:05:31,42.805,6.029,CST-1368DR,4835,5782,12760,0.808,551
2022-03-22T07:08:32,42.805,6.029,CST-1368DR,4835,5783,12763,0.807,551
2022-03-22T07:11:34,42.805,6.029,CST-1368DR,4835,5782,12761,0.808,551
2022-03-22T07:14:35,42.805,6.029,CST-1368DR,4835,5783,12764,0.807,551
2022-03-22T07:17:37,42.805,6.029,CST-1368DR,4835,5784,12765,0.806,551
2022-03-22T07:20:39,42.805,6.029,CST-1368DR,4835,5776,12747,0.812,551
2022-03-22T07:23:40,42.805,6.029,CST-1368DR,4836,5783,12761,0.808,551
2022-03-22T07:26:42,42.805,6.029,CST-1368DR,4835,5785,12768,0.805,551
2022-03-22T07:29:43,42.805,6.029,CST-1368DR,4835,5783,12763,0.807,551
2022-03-22T07:32:45,42.805,6.029,CST-1368DR,4835,5775,12745,0.813,551
2022-03-22T07:35:46,42.805,6.029,CST-1368DR,4835,5783,12762,0.807,551
2022-03-22T07:38:48,42.805,6.029,CST-1368DR,4835,5785,12768,0.805,551
2022-03-22T07:41:50,42.805,6.029,CST-1368DR,4835,5781,12759,0.808,551
2022-03-22T07:44:51,42.805,6.029,CST-1368DR,4835,5783,12763,0.807,551
2022-03-22T07:47:53,42.805,6.029,CST-1368DR,4835,5784,12766,0.806,550
2022-03-22T07:50:54,42.805,6.029,CST-1368DR,4835,5783,12763,0.807,551
2022-03-22T07:53:56,42.805,6.029,CST-1368DR,4835,5782,12762,0.807,551
2022-03-22T07:56:58,42.805,6.029,CST-1368DR,4835,5779,12754,0.810,551
2022-03-22T07:59:59,42.805,6.029,CST-1368DR,4835,5774,12744,0.813,551
2022-03-22T08:03:01,42.805,6.029,CST-1368DR,4835,5784,12765,0.806,551
2022-03-22T08:06:02,42.805,6.029,CST-1368DR,4835,5780,12756,0.809,551
2022-03-22T08:09:04,42.805,6.029,CST-1368DR,4835,5780,12757,0.809,551
2022-03-22T08:12:05,42.805,6.029,CST-1368DR,4835,5774,12743,0.813,551
2022-03-22T08:15:07,42.805,6.029,CST-1368DR,4835,5778,12752,0.810,551
2022-03-22T08:18:09,42.805,6.029,CST-1368DR,4835,5779,12753,0.810,551
2022-03-22T08:21:10,42.805,6.029,CST-1368DR,4835,5777,12749,0.811,551
2022-03-22T08:24:12,42.805,6.029,CST-1368DR,4835,5778,12752,0.810,551
2022-03-22T08:27:13,42.805,6.029,CST-1368DR,4835,5782,12761,0.808,551
2022-03-22T08:30:15,42.805,6.029,CST-1368DR,4835,5781,12758,0.809,551
2022-03-22T08:33:16,42.805,6.029,CST-1368DR,4835,5782,12761,0.808,551
2022-03-22T08:36:18,42.805,6.029,CST-1368DR,4835,5783,12762,0.807,551
2022-03-22T08:39:20,42.805,6.029,CST-1368DR,4835,5784,12766,0.806,551
2022-03-22T08:42:21,42.805,6.029,CST-1368DR,4835,5786,12769,0.805,551
2022-03-22T08:45:23,42.805,6.029,CST-1368DR,4835,5784,12764,0.807,551
2022-03-22T08:48:24,42.805,6.029,CST-1368DR,4835,5780,12757,0.809,551
2022-03-22T08:51:26,42.805,6.029,CST-1368DR,4835,5777,12749,0.811,551
2022-03-22T08:54:28,42.805,6.029,CST-1368DR,4835,5779,12754,0.810,551
2022-03-22T08:57:29,42.805,6.029,CST-1368DR,4835,5774,12744,0.813,551
2022-03-22T09:00:31,42.805,6.029,CST-1368DR,4835,5779,12755,0.809,551
2022-03-22T09:03:32,42.805,6.029,CST-1368DR,4835,5774,12742,0.814,551
2022-03-22T09:06:34,42.805,6.029,CST-1368DR,4835,5783,12763,0.807,551
2022-03-22T09:09:35,42.805,6.029,CST-1368DR,4835,5780,12757,0.809,551
2022-03-22T09:12:37,42.805,6.029,CST-1368DR,4835,5776,12748,0.812,551
2022-03-22T09:15:39,42.805,6.029,CST-1368DR,4835,5776,12747,0.812,551
2022-03-22T09:18:40,42.805,6.029,CST-1368DR,4835,5773,12740,0.814,551
2022-03-22T09:21:42,42.805,6.029,CST-1368DR,4835,5778,12753,0.810,551
2022-03-22T09:24:43,42.805,6.029,CST-1368DR,4835,5775,12746,0.812,551
2022-03-22T09:27:45,42.805,6.029,CST-1368DR,4835,5774,12743,0.813,551
2022-03-22T09:30:46,42.805,6.029,CST-1368DR,4835,5772,12738,0.815,551
2022-03-22T09:33:48,42.805,6.029,CST-1368DR,4835,5782,12761,0.808,551
2022-03-22T09:36:50,42.805,6.029,CST-1368DR,4835,5775,12746,0.812,551
2022-03-22T09:39:51,42.805,6.029,CST-1368DR,4835,5778,12752,0.810,551
2022-03-22T09:42:53,42.805,6.029,CST-1368DR,4835,5778,12752,0.810,551
2022-03-22T09:45:54,42.805,6.029,CST-1368DR,4835,5777,12749,0.811,551
2022-03-22T09:48:56,42.805,6.029,CST-1368DR,4835,5777,12749,0.811,551
2022-03-22T09:51:58,42.805,6.029,CST-1368DR,4835,5771,12737,0.815,551
2022-03-22T09:54:59,42.805,6.029,CST-1368DR,4835,5770,12735,0.816,551
2022-03-22T10:15:07,42.805,6.029,CST-1368DR,4835,5778,12752,0.810,551
2022-03-22T10:20:06,42.805,6.029,CST-1368DR,4835,5772,12739,0.815,551
2022-03-22T10:23:08,42.805,6.029,CST-1368DR,4835,5775,12745,0.813,551
2022-03-22T10:26:10,42.805,6.029,CST-1368DR,4835,5775,12745,0.813,551
2022-03-22T10:29:11,42.805,6.029,CST-1368DR,4835,5774,12744,0.813,551
2022-03-22T10:32:13,42.805,6.029,CST-1368DR,4835,5779,12755,0.809,551
2022-03-22T10:35:14,42.805,6.029,CST-1368DR,4835,5779,12753,0.810,551
2022-03-22T10:38:16,42.805,6.029,CST-1368DR,4835,5779,12755,0.809,551
2022-03-22T10:41:17,42.805,6.029,CST-1368DR,4835,5776,12748,0.812,551
2022-03-22T10:44:19,42.805,6.029,CST-1368DR,4835,5779,12754,0.810,551
2022-03-22T10:47:21,42.805,6.029,CST-1368DR,4835,5777,12749,0.811,551
2022-03-22T10:50:22,42.805,6.029,CST-1368DR,4835,5779,12755,0.809,551
2022-03-22T10:53:24,42.805,6.029,CST-1368DR,4835,5782,12760,0.808,551
2022-03-22T10:56:25,42.805,6.029,CST-1368DR,4835,5782,12761,0.808,551
2022-03-22T10:59:27,42.805,6.029,CST-1368DR,4835,5780,12756,0.809,551
2022-03-22T11:02:28,42.805,6.029,CST-1368DR,4835,5776,12747,0.812,551
2022-03-22T11:05:30,42.805,6.029,CST-1368DR,4835,5783,12763,0.807,551
2022-03-22T11:08:32,42.805,6.029,CST-1368DR,4835,5783,12763,0.807,551
2022-03-22T11:11:33,42.805,6.029,CST-1368DR,4835,5785,12767,0.806,551
2022-03-22T11:14:35,42.805,6.029,CST-1368DR,4835,5783,12763,0.807,551
2022-03-22T11:17:36,42.805,6.029,CST-1368DR,4835,5784,12764,0.807,551
2022-03-22T11:20:38,42.805,6.029,CST-1368DR,4835,5782,12761,0.808,551
2022-03-22T11:23:40,42.805,6.029,CST-1368DR,4835,5779,12754,0.810,551
2022-03-22T11:26:41,42.805,6.029,CST-1368DR,4835,5782,12761,0.808,551
2022-03-22T11:29:43,42.805,6.029,CST-1368DR,4835,5786,12769,0.805,551
2022-03-22T11:32:44,42.805,6.029,CST-1368DR,4835,5785,12768,0.805,551
2022-03-22T11:35:46,42.805,6.029,CST-1368DR,4835,5787,12772,0.804,551
2022-03-22T11:38:47,42.805,6.029,CST-1368DR,4835,5786,12770,0.805,551
2022-03-22T11:41:49,42.805,6.029,CST-1368DR,4835,5784,12765,0.806,551
2022-03-22T11:44:51,42.805,6.029,CST-1368DR,4835,5782,12762,0.807,551
2022-03-22T11:47:52,42.805,6.029,CST-1368DR,4835,5786,12769,0.805,551
2022-03-22T11:50:54,42.805,6.029,CST-1368DR,4835,5783,12764,0.807,551
2022-03-22T11:53:55,42.805,6.029,CST-1368DR,4835,5781,12759,0.808,551
2022-03-22T11:56:57,42.805,6.029,CST-1368DR,4835,5785,12767,0.806,551
2022-03-22T11:59:58,42.805,6.029,CST-1368DR,4835,5786,12769,0.805,551
2022-03-22T12:03:00,42.805,6.029,CST-1368DR,4835,5775,12745,0.813,551
2022-03-22T12:06:02,42.805,6.029,CST-1368DR,4835,5781,12758,0.809,551
2022-03-22T12:09:03,42.805,6.029,CST-1368DR,4835,5776,12747,0.812,551
2022-03-22T12:12:05,42.805,6.029,CST-1368DR,4835,5776,12747,0.812,551
2022-03-22T12:15:06,42.805,6.029,CST-1368DR,4835,5778,12753,0.810,551
2022-03-22T12:18:08,42.805,6.029,CST-1368DR,4835,5778,12752,0.810,551
2022-03-22T12:21:10,42.805,6.029,CST-1368DR,4835,5785,12768,0.805,551
2022-03-22T12:24:11,42.805,6.029,CST-1368DR,4835,5779,12754,0.810,551
2022-03-22T12:27:13,42.805,6.029,CST-1368DR,4835,5779,12754,0.810,551
2022-03-22T12:30:14,42.805,6.029,CST-1368DR,4835,5783,12763,0.807,551
2022-03-22T12:33:16,42.805,6.029,CST-1368DR,4835,5782,12761,0.808,551
2022-03-22T12:36:17,42.805,6.029,CST-1368DR,4835,5785,12767,0.806,551
2022-03-22T12:39:19,42.805,6.029,CST-1368DR,4835,5766,12725,0.819,551
2022-03-22T12:42:21,42.805,6.029,CST-1368DR,4835,5771,12736,0.815,551
2022-03-22T12:45:22,42.805,6.029,CST-1368DR,4835,5772,12739,0.815,551
2022-03-22T12:48:24,42.805,6.029,CST-1368DR,4835,5767,12727,0.818,551
2022-03-22T12:51:25,42.805,6.029,CST-1368DR,4835,5773,12741,0.814,551
2022-03-22T12:55:07,42.805,6.029,CST-1368DR,4835,5769,12732,0.817,551
2022-03-22T12:58:08,42.805,6.029,CST-1368DR,4835,5772,12738,0.815,551
2022-03-22T13:05:07,42.805,6.029,CST-1368DR,4835,5770,12735,0.816,551
2022-03-22T13:08:08,42.805,6.029,CST-1368DR,4835,5768,12730,0.817,551
2022-03-22T13:11:10,42.805,6.029,CST-1368DR,4835,5773,12742,0.814,551
2022-03-22T13:14:12,42.805,6.029,CST-1368DR,4835,5766,12726,0.819,551
2022-03-22T13:17:13,42.805,6.029,CST-1368DR,4835,5773,12740,0.814,551
2022-03-22T13:20:15,42.805,6.029,CST-1368DR,4835,5773,12742,0.814,551
2022-03-22T13:23:16,42.805,6.029,CST-1368DR,4835,5773,12740,0.814,551
2022-03-22T13:26:18,42.805,6.029,CST-1368DR,4835,5770,12735,0.816,551
2022-03-22T13:29:20,42.805,6.029,CST-1368DR,4835,5776,12748,0.812,551
2022-03-22T13:32:21,42.805,6.029,CST-1368DR,4835,5771,12737,0.815,551
2022-03-22T13:35:23,42.805,6.029,CST-1368DR,4835,5770,12734,0.816,551
2022-03-22T13:38:24,42.805,6.029,CST-1368DR,4835,5760,12713,0.823,551
2022-03-22T13:41:26,42.805,6.029,CST-1368DR,4835,5772,12740,0.814,551
2022-03-22T13:44:27,42.805,6.029,CST-1368DR,4835,5769,12732,0.817,551
2022-03-22T13:47:29,42.805,6.029,CST-1368DR,4835,5750,12690,0.830,551
2022-03-22T13:50:31,42.805,6.029,CST-1368DR,4835,5746,12682,0.832,551
2022-03-22T13:53:32,42.805,6.029,CST-1368DR,4835,5769,12733,0.816,551
2022-03-22T13:56:34,42.805,6.029,CST-1368DR,4835,5768,12730,0.817,551
2022-03-22T13:59:35,42.805,6.029,CST-1368DR,4835,5770,12733,0.816,551
2022-03-22T14:02:37,42.805,6.029,CST-1368DR,4835,5761,12714,0.822,551
2022-03-22T14:05:38,42.805,6.029,CST-1368DR,4835,5753,12697,0.828,551
2022-03-22T14:08:40,42.805,6.029,CST-1368DR,4835,5766,12726,0.819,551
2022-03-22T14:11:42,42.805,6.029,CST-1368DR,4835,5766,12726,0.819,551
2022-03-22T14:14:43,42.805,6.029,CST-1368DR,4835,5765,12724,0.819,551
2022-03-22T14:17:45,42.805,6.029,CST-1368DR,4835,5765,12724,0.819,551
2022-03-22T14:20:46,42.805,6.029,CST-1368DR,4835,5771,12736,0.815,551
2022-03-22T14:23:48,42.805,6.029,CST-1368DR,4835,5765,12724,0.819,551
2022-03-22T14:26:50,42.805,6.029,CST-1368DR,4835,5771,12736,0.815,551
2022-03-22T14:29:51,42.805,6.029,CST-1368DR,4835,5764,12722,0.820,551
2022-03-22T14:32:53,42.805,6.029,CST-1368DR,4835,5759,12710,0.824,551
2022-03-22T14:35:54,42.805,6.029,CST-1368DR,4835,5766,12725,0.819,551
2022-03-22T14:38:56,42.805,6.029,CST-1368DR,4835,5759,12709,0.824,551
2022-03-22T14:41:57,42.805,6.029,CST-1368DR,4835,5762,12717,0.821,551
2022-03-22T14:44:59,42.805,6.029,CST-1368DR,4835,5771,12737,0.815,551
2022-03-22T14:48:01,42.805,6.029,CST-1368DR,4835,5765,12722,0.820,551
2022-03-22T14:51:02,42.805,6.029,CST-1368DR,4835,5760,12713,0.823,551
2022-03-22T14:54:04,42.805,6.029,CST-1368DR,4835,5768,12730,0.817,551
2022-03-22T14:57:05,42.805,6.029,CST-1368DR,4835,5765,12724,0.819,551
2022-03-22T15:00:07,42.805,6.029,CST-1368DR,4835,5767,12727,0.818,551
2022-03-22T15:03:08,42.805,6.029,CST-1368DR,4835,5760,12711,0.823,551
2022-03-22T15:06:10,42.805,6.029,CST-1368DR,4835,5769,12733,0.816,551
2022-03-22T15:09:12,42.805,6.029,CST-1368DR,4835,5763,12719,0.821,551
2022-03-22T15:12:13,42.805,6.029,CST-1368DR,4835,5768,12729,0.818,551
2022-03-22T15:15:15,42.805,6.029,CST-1368DR,4835,5760,12713,0.823,551
2022-03-22T15:18:16,42.805,6.029,CST-1368DR,4835,5759,12710,0.824,551
2022-03-22T15:21:18,42.805,6.029,CST-1368DR,4835,5767,12727,0.818,551
2022-03-22T15:24:20,42.805,6.029,CST-1368DR,4835,5760,12712,0.823,551
2022-03-22T15:27:21,42.805,6.029,CST-1368DR,4835,5762,12717,0.821,551
2022-03-22T15:30:23,42.805,6.029,CST-1368DR,4835,5769,12732,0.817,551
2022-03-22T15:33:24,42.805,6.029,CST-1368DR,4835,5756,12704,0.826,551
2022-03-22T15:36:26,42.805,6.029,CST-1368DR,4835,5762,12717,0.821,551
2022-03-22T15:39:27,42.805,6.029,CST-1368DR,4835,5739,12665,0.838,551
2022-03-22T15:42:29,42.805,6.029,CST-1368DR,4835,5762,12717,0.821,551
2022-03-22T15:45:31,42.805,6.029,CST-1368DR,4835,5759,12711,0.823,551
2022-03-22T15:48:32,42.805,6.029,CST-1368DR,4835,5756,12703,0.826,551
2022-03-22T15:51:34,42.805,6.029,CST-1368DR,4835,5756,12704,0.826,551
2022-03-22T15:54:35,42.805,6.029,CST-1368DR,4835,5759,12710,0.824,551
2022-03-22T15:57:37,42.805,6.029,CST-1368DR,4835,5758,12709,0.824,551
2022-03-22T16:00:38,42.805,6.029,CST-1368DR,4835,5749,12687,0.831,551
2022-03-22T16:03:40,42.805,6.029,CST-1368DR,4835,5757,12705,0.825,551
2022-03-22T16:06:42,42.805,6.029,CST-1368DR,4835,5745,12679,0.833,551
2022-03-22T16:09:43,42.805,6.029,CST-1368DR,4835,5747,12684,0.832,551
2022-03-22T16:12:45,42.805,6.029,CST-1368DR,4835,5753,12697,0.828,551
2022-03-22T16:15:46,42.805,6.029,CST-1368DR,4835,5757,12705,0.825,551
2022-03-22T16:18:48,42.805,6.029,CST-1368DR,4835,5758,12708,0.824,551
2022-03-22T16:21:50,42.805,6.029,CST-1368DR,4835,5760,12711,0.823,551
2022-03-22T16:24:51,42.805,6.029,CST-1368DR,4835,5757,12706,0.825,551
2022-03-22T16:27:53,42.805,6.029,CST-1368DR,4835,5759,12711,0.823,551
2022-03-22T16:30:54,42.805,6.029,CST-1368DR,4835,5752,12694,0.829,551
2022-03-22T16:33:56,42.805,6.029,CST-1368DR,4835,5759,12711,0.823,551
2022-03-22T16:36:57,42.805,6.029,CST-1368DR,4835,5752,12694,0.829,551
2022-03-22T16:39:59,42.805,6.029,CST-1368DR,4835,5748,12685,0.832,551
2022-03-22T16:43:01,42.805,6.029,CST-1368DR,4835,5752,12694,0.829,551
2022-03-22T16:46:02,42.805,6.029,CST-1368DR,4835,5755,12702,0.826,551
2022-03-22T16:49:04,42.805,6.029,CST-1368DR,4835,5756,12704,0.826,551
2022-03-22T16:52:05,42.805,6.029,CST-1368DR,4835,5749,12688,0.831,551
2022-03-22T16:55:07,42.805,6.029,CST-1368DR,4835,5753,12696,0.828,551
2022-03-22T16:58:08,42.805,6.029,CST-1368DR,4835,5746,12681,0.833,551
2022-03-22T17:01:10,42.805,6.029,CST-1368DR,4835,5758,12708,0.824,551
2022-03-22T17:04:12,42.805,6.029,CST-1368DR,4835,5760,12713,0.823,551
2022-03-22T17:07:13,42.805,6.029,CST-1368DR,4835,5755,12702,0.826,551
2022-03-22T17:10:15,42.805,6.029,CST-1368DR,4835,5749,12689,0.830,551
2022-03-22T17:13:16,42.805,6.029,CST-1368DR,4835,5746,12681,0.833,551
2022-03-22T17:16:18,42.805,6.029,CST-1368DR,4835,5742,12673,0.835,551